Time,TemperatureF,DewpointF,PressureIn,WindDirection,WindDirectionDegrees,WindSpeedMPH,WindSpeedGustMPH,Humidity,HourlyPrecipIn,Conditions,Clouds,dailyrainin,SoftwareType,DateUTC
2013-08-18 00:00:00,66.3,58.2,30.15,East,80,0.0,1.0,75,0.00,,---,0.00,VWS V14.01,2013-08-18 05:00:00,
2013-08-18 00:03:00,66.2,58.0,30.15,East,80,0.0,0.0,75,0.00,,---,0.00,VWS V14.01,2013-08-18 05:03:00,
2013-08-18 00:08:00,66.0,58.2,30.16,NE,56,0.0,0.0,76,0.00,,---,0.00,VWS V14.01,2013-08-18 05:08:00,
2013-08-18 00:13:00,65.8,58.4,30.16,NE,53,0.0,0.0,77,0.00,,---,0.00,VWS V14.01,2013-08-18 05:13:00,
2013-08-18 00:18:00,65.4,58.0,30.16,NE,54,0.0,0.0,77,0.00,,---,0.00,VWS V14.01,2013-08-18 05:18:00,
2013-08-18 00:23:00,65.0,58.0,30.16,NE,54,0.0,0.0,78,0.00,,---,0.00,VWS V14.01,2013-08-18 05:23:00,
2013-08-18 00:28:00,64.7,57.7,30.16,NE,53,0.0,0.0,78,0.00,,---,0.00,VWS V14.01,2013-08-18 05:28:00,
2013-08-18 00:30:00,64.7,57.7,30.16,NE,53,0.0,0.0,78,0.00,,---,0.00,VWS V14.01,2013-08-18 05:30:00,
2013-08-18 00:34:00,64.3,57.7,30.16,NE,54,0.0,0.0,79,0.00,,---,0.00,VWS V14.01,2013-08-18 05:34:00,
2013-08-18 00:39:00,63.9,57.3,30.16,NE,54,0.0,0.0,79,0.00,,---,0.00,VWS V14.01,2013-08-18 05:39:00,
2013-08-18 00:44:00,63.5,57.2,30.16,NE,56,0.0,0.0,80,0.00,,---,0.00,VWS V14.01,2013-08-18 05:44:00,
2013-08-18 00:49:00,63.3,57.4,30.16,NE,56,0.0,0.0,81,0.00,,---,0.00,VWS V14.01,2013-08-18 05:49:00,
2013-08-18 00:54:00,63.2,57.3,30.16,NE,56,0.0,0.0,81,0.00,,---,0.00,VWS V14.01,2013-08-18 05:54:00,
2013-08-18 00:59:00,63.2,57.3,30.16,NE,56,0.0,0.0,81,0.00,,---,0.00,VWS V14.01,2013-08-18 05:59:00,
2013-08-18 01:00:00,63.2,57.3,30.16,NE,56,0.0,0.0,81,0.00,,---,0.00,VWS V14.01,2013-08-18 06:00:00,
2013-08-18 01:04:00,63.2,57.3,30.16,NE,55,0.0,0.0,81,0.00,,---,0.00,VWS V14.01,2013-08-18 06:04:00,
2013-08-18 01:10:00,63.3,57.4,30.16,NE,56,0.0,0.0,81,0.00,,---,0.00,VWS V14.01,2013-08-18 06:10:00,
2013-08-18 01:15:00,63.3,57.0,30.15,NE,56,0.0,0.0,80,0.00,,---,0.00,VWS V14.01,2013-08-18 06:15:00,
2013-08-18 01:20:00,63.0,57.1,30.15,NE,56,0.0,0.0,81,0.00,,---,0.00,VWS V14.01,2013-08-18 06:20:00,
2013-08-18 01:25:00,62.8,56.9,30.15,NE,56,0.0,0.0,81,0.00,,---,0.00,VWS V14.01,2013-08-18 06:25:00,
2013-08-18 01:30:00,62.7,56.8,30.15,NE,56,0.0,0.0,81,0.00,,---,0.00,VWS V14.01,2013-08-18 06:30:00,
2013-08-18 01:35:00,62.7,56.8,30.15,NE,56,0.0,0.0,81,0.00,,---,0.00,VWS V14.01,2013-08-18 06:35:00,
2013-08-18 01:40:00,62.6,57.0,30.15,NE,56,0.0,0.0,82,0.00,,---,0.00,VWS V14.01,2013-08-18 06:40:00,
2013-08-18 01:45:00,62.6,56.7,30.15,NE,56,0.0,0.0,81,0.00,,---,0.00,VWS V14.01,2013-08-18 06:45:00,
2013-08-18 01:50:00,62.5,56.6,30.15,ENE,58,0.0,0.0,81,0.00,,---,0.00,VWS V14.01,2013-08-18 06:50:00,
2013-08-18 01:56:00,62.5,56.9,30.15,ENE,75,0.0,0.0,82,0.00,,---,0.00,VWS V14.01,2013-08-18 06:56:00,
2013-08-18 02:00:00,62.5,56.9,30.15,ENE,75,0.0,0.0,82,0.00,,---,0.00,VWS V14.01,2013-08-18 07:00:00,
2013-08-18 02:01:00,62.5,56.9,30.15,ENE,75,0.0,0.0,82,0.00,,---,0.00,VWS V14.01,2013-08-18 07:01:00,
2013-08-18 02:06:00,62.3,56.4,30.15,ENE,75,0.0,0.0,81,0.00,,---,0.00,VWS V14.01,2013-08-18 07:06:00,
2013-08-18 02:11:00,62.0,56.5,30.15,ENE,75,0.0,0.0,82,0.00,,---,0.00,VWS V14.01,2013-08-18 07:11:00,
2013-08-18 02:16:00,61.8,56.6,30.15,ENE,75,0.0,0.0,83,0.00,,---,0.00,VWS V14.01,2013-08-18 07:16:00,
2013-08-18 02:21:00,62.0,56.5,30.15,SE,128,0.0,0.0,82,0.00,,---,0.00,VWS V14.01,2013-08-18 07:21:00,
2013-08-18 02:26:00,62.3,56.7,30.15,ESE,113,0.0,0.0,82,0.00,,---,0.00,VWS V14.01,2013-08-18 07:26:00,
2013-08-18 02:30:00,62.4,56.8,30.15,SE,142,0.0,0.0,82,0.00,,---,0.00,VWS V14.01,2013-08-18 07:30:00,
2013-08-18 02:31:00,62.3,56.4,30.15,SE,142,0.0,0.0,81,0.00,,---,0.00,VWS V14.01,2013-08-18 07:31:00,
2013-08-18 02:37:00,62.3,56.4,30.15,SE,142,0.0,1.0,81,0.00,,---,0.00,VWS V14.01,2013-08-18 07:37:00,
2013-08-18 02:42:00,62.0,56.5,30.15,SE,142,0.0,1.0,82,0.00,,---,0.00,VWS V14.01,2013-08-18 07:42:00,
2013-08-18 02:47:00,61.8,56.2,30.15,SE,142,0.0,1.0,82,0.00,,---,0.00,VWS V14.01,2013-08-18 07:47:00,
2013-08-18 02:52:00,61.7,56.2,30.15,SE,142,0.0,1.0,82,0.00,,---,0.00,VWS V14.01,2013-08-18 07:52:00,
2013-08-18 02:57:00,61.4,56.2,30.15,SE,142,0.0,1.0,83,0.00,,---,0.00,VWS V14.01,2013-08-18 07:57:00,
2013-08-18 03:00:00,61.4,56.2,30.15,SE,142,0.0,1.0,83,0.00,,---,0.00,VWS V14.01,2013-08-18 08:00:00,
2013-08-18 03:02:00,61.3,56.1,30.15,SE,142,0.0,0.0,83,0.00,,---,0.00,VWS V14.01,2013-08-18 08:02:00,
2013-08-18 03:07:00,61.3,56.1,30.14,SE,142,0.0,0.0,83,0.00,,---,0.00,VWS V14.01,2013-08-18 08:07:00,
2013-08-18 03:12:00,61.2,56.0,30.15,ESE,105,0.0,1.0,83,0.00,,---,0.00,VWS V14.01,2013-08-18 08:12:00,
2013-08-18 03:18:00,61.2,56.3,30.15,ESE,105,0.0,1.0,84,0.00,,---,0.00,VWS V14.01,2013-08-18 08:18:00,
2013-08-18 03:23:00,61.0,56.1,30.15,ESE,105,0.0,1.0,84,0.00,,---,0.00,VWS V14.01,2013-08-18 08:23:00,
2013-08-18 03:28:00,61.2,56.3,30.14,SE,134,0.0,3.0,84,0.00,,---,0.00,VWS V14.01,2013-08-18 08:28:00,
2013-08-18 03:30:00,61.3,56.4,30.14,SE,134,0.0,3.0,84,0.00,,---,0.00,VWS V14.01,2013-08-18 08:30:00,
2013-08-18 03:33:00,61.3,56.1,30.15,ESE,115,0.0,1.0,83,0.00,,---,0.00,VWS V14.01,2013-08-18 08:33:00,
2013-08-18 03:38:00,61.2,56.3,30.15,ESE,114,0.0,1.0,84,0.00,,---,0.00,VWS V14.01,2013-08-18 08:38:00,
2013-08-18 03:43:00,61.0,56.1,30.15,ESE,120,0.0,1.0,84,0.00,,---,0.00,VWS V14.01,2013-08-18 08:43:00,
2013-08-18 03:48:00,60.9,56.0,30.15,ESE,120,0.0,1.0,84,0.00,,---,0.00,VWS V14.01,2013-08-18 08:48:00,
2013-08-18 03:53:00,60.7,56.2,30.15,ESE,120,0.0,1.0,85,0.00,,---,0.00,VWS V14.01,2013-08-18 08:53:00,
2013-08-18 03:59:00,60.7,55.8,30.15,ESE,123,0.0,1.0,84,0.00,,---,0.00,VWS V14.01,2013-08-18 08:59:00,
2013-08-18 04:00:00,60.7,55.8,30.15,ESE,123,0.0,1.0,84,0.00,,---,0.00,VWS V14.01,2013-08-18 09:00:00,
2013-08-18 04:04:00,60.6,56.1,30.15,ESE,122,0.0,0.0,85,0.00,,---,0.00,VWS V14.01,2013-08-18 09:04:00,
2013-08-18 04:09:00,60.5,56.0,30.15,ESE,123,0.0,0.0,85,0.00,,---,0.00,VWS V14.01,2013-08-18 09:09:00,
2013-08-18 04:14:00,60.2,55.7,30.15,ESE,123,0.0,0.0,85,0.00,,---,0.00,VWS V14.01,2013-08-18 09:14:00,
2013-08-18 04:19:00,60.0,55.5,30.15,ESE,123,0.0,0.0,85,0.00,,---,0.00,VWS V14.01,2013-08-18 09:19:00,
2013-08-18 04:24:00,59.8,55.6,30.15,ESE,123,0.0,0.0,86,0.00,,---,0.00,VWS V14.01,2013-08-18 09:24:00,
2013-08-18 04:29:00,59.4,55.2,30.15,ESE,123,0.0,0.0,86,0.00,,---,0.00,VWS V14.01,2013-08-18 09:29:00,
2013-08-18 04:30:00,59.4,55.2,30.15,ESE,123,0.0,0.0,86,0.00,,---,0.00,VWS V14.01,2013-08-18 09:30:00,
2013-08-18 04:34:00,59.1,55.2,30.15,ESE,122,0.0,0.0,87,0.00,,---,0.00,VWS V14.01,2013-08-18 09:34:00,
2013-08-18 04:40:00,59.0,55.5,30.16,ESE,122,0.0,0.0,88,0.00,,---,0.00,VWS V14.01,2013-08-18 09:40:00,
2013-08-18 04:45:00,59.0,55.5,30.16,ESE,122,0.0,0.0,88,0.00,,---,0.00,VWS V14.01,2013-08-18 09:45:00,
2013-08-18 04:50:00,58.9,55.4,30.15,ESE,122,0.0,0.0,88,0.00,,---,0.00,VWS V14.01,2013-08-18 09:50:00,
2013-08-18 04:55:00,58.7,55.2,30.16,ESE,123,0.0,0.0,88,0.00,,---,0.00,VWS V14.01,2013-08-18 09:55:00,
2013-08-18 05:00:00,58.6,55.1,30.16,ESE,122,0.0,0.0,88,0.00,,---,0.00,VWS V14.01,2013-08-18 10:00:00,
2013-08-18 05:05:00,58.4,55.2,30.16,ESE,122,0.0,0.0,89,0.00,,---,0.00,VWS V14.01,2013-08-18 10:05:00,
2013-08-18 05:10:00,58.2,55.0,30.16,ESE,123,0.0,0.0,89,0.00,,---,0.00,VWS V14.01,2013-08-18 10:10:00,
2013-08-18 05:15:00,57.9,54.7,30.16,ESE,123,0.0,0.0,89,0.00,,---,0.00,VWS V14.01,2013-08-18 10:15:00,
2013-08-18 05:20:00,57.6,54.7,30.16,ESE,123,0.0,0.0,90,0.00,,---,0.00,VWS V14.01,2013-08-18 10:20:00,
2013-08-18 05:26:00,57.6,54.7,30.16,ESE,123,0.0,0.0,90,0.00,,---,0.00,VWS V14.01,2013-08-18 10:26:00,
2013-08-18 05:30:00,57.6,54.7,30.16,ESE,123,0.0,0.0,90,0.00,,---,0.00,VWS V14.01,2013-08-18 10:30:00,
2013-08-18 05:31:00,57.5,54.6,30.16,ESE,123,0.0,0.0,90,0.00,,---,0.00,VWS V14.01,2013-08-18 10:31:00,
2013-08-18 05:36:00,57.4,54.8,30.16,ESE,123,0.0,0.0,91,0.00,,---,0.00,VWS V14.01,2013-08-18 10:36:00,
2013-08-18 05:41:00,57.2,54.6,30.16,ESE,123,0.0,0.0,91,0.00,,---,0.00,VWS V14.01,2013-08-18 10:41:00,
2013-08-18 05:46:00,57.3,54.7,30.16,ESE,122,0.0,0.0,91,0.00,,---,0.00,VWS V14.01,2013-08-18 10:46:00,
2013-08-18 05:51:00,57.2,54.6,30.16,ESE,122,0.0,0.0,91,0.00,,---,0.00,VWS V14.01,2013-08-18 10:51:00,
2013-08-18 05:56:00,57.1,54.5,30.17,ESE,123,0.0,0.0,91,0.00,,---,0.00,VWS V14.01,2013-08-18 10:56:00,
2013-08-18 06:00:00,57.0,54.4,30.16,ESE,123,0.0,0.0,91,0.00,,---,0.00,VWS V14.01,2013-08-18 11:00:00,
2013-08-18 06:01:00,56.9,54.3,30.17,ESE,122,0.0,0.0,91,0.00,,---,0.00,VWS V14.01,2013-08-18 11:01:00,
2013-08-18 06:07:00,56.7,54.4,30.17,ESE,122,0.0,0.0,92,0.00,,---,0.00,VWS V14.01,2013-08-18 11:07:00,
2013-08-18 06:12:00,56.8,54.5,30.17,ESE,122,0.0,0.0,92,0.00,,---,0.00,VWS V14.01,2013-08-18 11:12:00,
2013-08-18 06:17:00,56.8,54.5,30.17,ESE,122,0.0,0.0,92,0.00,,---,0.00,VWS V14.01,2013-08-18 11:17:00,
2013-08-18 06:22:00,56.6,54.3,30.17,ESE,123,0.0,0.0,92,0.00,,---,0.00,VWS V14.01,2013-08-18 11:22:00,
2013-08-18 06:27:00,56.6,54.6,30.17,ESE,123,0.0,0.0,93,0.00,,---,0.00,VWS V14.01,2013-08-18 11:27:00,
2013-08-18 06:30:00,56.7,54.7,30.17,ESE,123,0.0,0.0,93,0.00,,---,0.00,VWS V14.01,2013-08-18 11:30:00,
2013-08-18 06:32:00,56.8,54.8,30.17,ESE,123,0.0,0.0,93,0.00,,---,0.00,VWS V14.01,2013-08-18 11:32:00,
2013-08-18 06:37:00,56.8,54.5,30.17,ESE,122,0.0,0.0,92,0.00,,---,0.00,VWS V14.01,2013-08-18 11:37:00,
2013-08-18 06:42:00,56.8,54.5,30.17,ESE,123,0.0,0.0,92,0.00,,---,0.00,VWS V14.01,2013-08-18 11:42:00,
2013-08-18 06:47:00,56.8,54.5,30.17,ESE,123,0.0,0.0,92,0.00,,---,0.00,VWS V14.01,2013-08-18 11:47:00,
2013-08-18 06:53:00,56.8,54.5,30.18,ESE,120,0.0,0.0,92,0.00,,---,0.00,VWS V14.01,2013-08-18 11:53:00,
2013-08-18 06:58:00,56.9,54.6,30.18,ESE,120,0.0,0.0,92,0.00,,---,0.00,VWS V14.01,2013-08-18 11:58:00,
2013-08-18 07:00:00,56.9,54.6,30.18,ESE,120,0.0,0.0,92,0.00,,---,0.00,VWS V14.01,2013-08-18 12:00:00,
2013-08-18 07:03:00,57.0,54.7,30.18,ESE,120,0.0,0.0,92,0.00,,---,0.00,VWS V14.01,2013-08-18 12:03:00,
2013-08-18 07:08:00,57.3,55.0,30.18,ESE,120,0.0,0.0,92,0.00,,---,0.00,VWS V14.01,2013-08-18 12:08:00,
2013-08-18 07:13:00,57.5,54.9,30.18,ESE,120,0.0,0.0,91,0.00,,---,0.00,VWS V14.01,2013-08-18 12:13:00,
2013-08-18 07:18:00,57.8,55.2,30.18,ESE,120,0.0,0.0,91,0.00,,---,0.00,VWS V14.01,2013-08-18 12:18:00,
2013-08-18 07:23:00,58.5,55.6,30.18,ESE,120,0.0,0.0,90,0.00,,---,0.00,VWS V14.01,2013-08-18 12:23:00,
2013-08-18 07:28:00,59.8,56.9,30.18,ESE,120,0.0,0.0,90,0.00,,---,0.00,VWS V14.01,2013-08-18 12:28:00,
2013-08-18 07:30:00,59.8,56.6,30.18,ESE,120,0.0,0.0,89,0.00,,---,0.00,VWS V14.01,2013-08-18 12:30:00,
2013-08-18 07:33:00,60.7,56.8,30.18,ESE,120,0.0,0.0,87,0.00,,---,0.00,VWS V14.01,2013-08-18 12:33:00,
2013-08-18 07:39:00,61.6,56.7,30.18,ESE,120,0.0,0.0,84,0.00,,---,0.00,VWS V14.01,2013-08-18 12:39:00,
2013-08-18 07:44:00,62.1,56.9,30.18,ESE,120,0.0,0.0,83,0.00,,---,0.00,VWS V14.01,2013-08-18 12:44:00,
2013-08-18 07:49:00,62.4,56.8,30.18,SE,142,0.0,1.0,82,0.00,,---,0.00,VWS V14.01,2013-08-18 12:49:00,
2013-08-18 07:54:00,62.6,56.7,30.18,SSW,201,1.0,2.0,81,0.00,,---,0.00,VWS V14.01,2013-08-18 12:54:00,
2013-08-18 07:59:00,62.6,56.7,30.18,SW,235,0.0,0.0,81,0.00,,---,0.00,VWS V14.01,2013-08-18 12:59:00,
2013-08-18 08:00:00,62.6,56.7,30.18,SW,235,0.0,3.0,81,0.00,,---,0.00,VWS V14.01,2013-08-18 13:00:00,
2013-08-18 08:04:00,62.9,57.0,30.19,SE,128,2.0,3.0,81,0.00,,---,0.00,VWS V14.01,2013-08-18 13:04:00,
2013-08-18 08:09:00,63.2,57.3,30.18,SSE,160,0.0,3.0,81,0.00,,---,0.00,VWS V14.01,2013-08-18 13:09:00,
2013-08-18 08:14:00,63.6,57.3,30.18,SSE,164,0.0,4.0,80,0.00,,---,0.00,VWS V14.01,2013-08-18 13:14:00,
2013-08-18 08:19:00,63.9,57.6,30.18,SSW,198,0.0,4.0,80,0.00,,---,0.00,VWS V14.01,2013-08-18 13:19:00,
2013-08-18 08:25:00,64.4,57.8,30.18,SSE,148,2.0,4.0,79,0.00,,---,0.00,VWS V14.01,2013-08-18 13:25:00,
2013-08-18 08:30:00,64.7,58.0,30.19,West,264,1.0,2.0,79,0.00,,---,0.00,VWS V14.01,2013-08-18 13:30:00,
2013-08-18 08:35:00,65.0,58.0,30.19,SSE,157,3.0,4.0,78,0.00,,---,0.00,VWS V14.01,2013-08-18 13:35:00,
2013-08-18 08:40:00,65.2,58.2,30.19,ESE,117,2.0,5.0,78,0.00,,---,0.00,VWS V14.01,2013-08-18 13:40:00,
2013-08-18 08:45:00,65.6,58.6,30.19,East,95,2.0,5.0,78,0.00,,---,0.00,VWS V14.01,2013-08-18 13:45:00,
2013-08-18 08:50:00,66.1,58.7,30.19,SE,127,0.0,5.0,77,0.00,,---,0.00,VWS V14.01,2013-08-18 13:50:00,
2013-08-18 08:55:00,66.8,59.4,30.19,SSW,194,0.0,5.0,77,0.00,,---,0.00,VWS V14.01,2013-08-18 13:55:00,
2013-08-18 09:00:00,67.3,59.1,30.19,SE,134,3.0,3.0,75,0.00,,---,0.00,VWS V14.01,2013-08-18 14:00:00,
2013-08-18 09:06:00,67.3,59.5,30.19,West,267,3.0,5.0,76,0.00,,---,0.00,VWS V14.01,2013-08-18 14:06:00,
2013-08-18 09:11:00,67.6,59.8,30.18,SW,218,1.0,5.0,76,0.00,,---,0.00,VWS V14.01,2013-08-18 14:11:00,
2013-08-18 09:16:00,68.0,59.4,30.18,SSW,212,1.0,5.0,74,0.00,,---,0.00,VWS V14.01,2013-08-18 14:16:00,
2013-08-18 09:21:00,68.5,59.9,30.18,SSE,161,1.0,5.0,74,0.00,,---,0.00,VWS V14.01,2013-08-18 14:21:00,
2013-08-18 09:26:00,69.1,59.7,30.18,West,259,1.0,5.0,72,0.00,,---,0.00,VWS V14.01,2013-08-18 14:26:00,
2013-08-18 09:30:00,69.1,59.7,30.18,SE,138,0.0,5.0,72,0.00,,---,0.00,VWS V14.01,2013-08-18 14:30:00,
2013-08-18 09:31:00,69.6,60.2,30.18,SSE,158,1.0,2.0,72,0.00,,---,0.00,VWS V14.01,2013-08-18 14:31:00,
2013-08-18 09:36:00,70.5,60.7,30.18,SW,219,0.0,2.0,71,0.00,,---,0.00,VWS V14.01,2013-08-18 14:36:00,
2013-08-18 09:41:00,70.8,60.5,30.18,SSW,208,0.0,2.0,70,0.00,,---,0.00,VWS V14.01,2013-08-18 14:41:00,
2013-08-18 09:47:00,71.0,60.7,30.18,South,190,0.0,4.0,70,0.00,,---,0.00,VWS V14.01,2013-08-18 14:47:00,
2013-08-18 09:52:00,71.3,60.2,30.18,ESE,105,2.0,4.0,68,0.00,,---,0.00,VWS V14.01,2013-08-18 14:52:00,
2013-08-18 09:57:00,71.5,60.4,30.18,South,174,1.0,5.0,68,0.00,,---,0.00,VWS V14.01,2013-08-18 14:57:00,
2013-08-18 10:00:00,71.5,60.4,30.18,SE,129,1.0,5.0,68,0.00,,---,0.00,VWS V14.01,2013-08-18 15:00:00,
2013-08-18 10:02:00,71.4,59.9,30.18,ESE,113,2.0,5.0,67,0.00,,---,0.00,VWS V14.01,2013-08-18 15:02:00,
2013-08-18 10:07:00,71.6,60.5,30.18,South,180,2.0,5.0,68,0.00,,---,0.00,VWS V14.01,2013-08-18 15:07:00,
2013-08-18 10:12:00,72.4,61.2,30.18,WSW,237,1.0,5.0,68,0.00,,---,0.00,VWS V14.01,2013-08-18 15:12:00,
2013-08-18 10:17:00,73.1,61.1,30.18,SSE,154,3.0,5.0,66,0.00,,---,0.00,VWS V14.01,2013-08-18 15:17:00,
2013-08-18 10:22:00,72.8,60.8,30.18,East,86,2.0,6.0,66,0.00,,---,0.00,VWS V14.01,2013-08-18 15:22:00,
2013-08-18 10:27:00,72.8,60.8,30.18,SW,226,1.0,6.0,66,0.00,,---,0.00,VWS V14.01,2013-08-18 15:27:00,
2013-08-18 10:30:00,73.0,61.4,30.17,West,259,3.0,6.0,67,0.00,,---,0.00,VWS V14.01,2013-08-18 15:30:00,
2013-08-18 10:32:00,73.3,61.3,30.18,SW,222,1.0,6.0,66,0.00,,---,0.00,VWS V14.01,2013-08-18 15:32:00,
2013-08-18 10:37:00,74.2,61.7,30.17,SSW,207,1.0,6.0,65,0.00,,---,0.00,VWS V14.01,2013-08-18 15:37:00,
2013-08-18 10:43:00,74.5,61.1,30.17,West,271,1.0,6.0,63,0.00,,---,0.00,VWS V14.01,2013-08-18 15:43:00,
2013-08-18 10:48:00,74.7,61.7,30.17,SSE,159,0.0,6.0,64,0.00,,---,0.00,VWS V14.01,2013-08-18 15:48:00,
2013-08-18 10:53:00,75.2,60.8,30.17,South,187,4.0,6.0,61,0.00,,---,0.00,VWS V14.01,2013-08-18 15:53:00,
2013-08-18 10:58:00,75.3,60.9,30.17,East,98,2.0,6.0,61,0.00,,---,0.00,VWS V14.01,2013-08-18 15:58:00,
2013-08-18 11:00:00,75.3,60.9,30.17,SW,219,2.0,6.0,61,0.00,,---,0.00,VWS V14.01,2013-08-18 16:00:00,
2013-08-18 11:03:00,75.8,61.4,30.17,SE,127,3.0,4.0,61,0.00,,---,0.00,VWS V14.01,2013-08-18 16:03:00,
2013-08-18 11:08:00,76.1,61.7,30.17,SW,233,3.0,6.0,61,0.00,,---,0.00,VWS V14.01,2013-08-18 16:08:00,
2013-08-18 11:13:00,76.5,62.5,30.17,South,174,2.0,6.0,62,0.00,,---,0.00,VWS V14.01,2013-08-18 16:13:00,
2013-08-18 11:18:00,76.7,61.8,30.17,SE,141,1.0,6.0,60,0.00,,---,0.00,VWS V14.01,2013-08-18 16:18:00,
2013-08-18 11:23:00,76.8,61.4,30.17,SSW,196,1.0,6.0,59,0.00,,---,0.00,VWS V14.01,2013-08-18 16:23:00,
2013-08-18 11:28:00,76.8,62.3,30.16,SE,124,1.0,6.0,61,0.00,,---,0.00,VWS V14.01,2013-08-18 16:28:00,
2013-08-18 11:30:00,76.9,62.4,30.17,SW,222,4.0,6.0,61,0.00,,---,0.00,VWS V14.01,2013-08-18 16:30:00,
2013-08-18 11:33:00,77.4,62.0,30.16,SSE,162,0.0,7.0,59,0.00,,---,0.00,VWS V14.01,2013-08-18 16:33:00,
2013-08-18 11:38:00,77.6,61.2,30.16,SE,129,0.0,7.0,57,0.00,,---,0.00,VWS V14.01,2013-08-18 16:38:00,
2013-08-18 11:43:00,77.9,61.0,30.16,SE,143,5.0,9.0,56,0.00,,---,0.00,VWS V14.01,2013-08-18 16:43:00,
2013-08-18 11:49:00,77.9,61.5,30.16,NW,321,2.0,9.0,57,0.00,,---,0.00,VWS V14.01,2013-08-18 16:49:00,
2013-08-18 11:54:00,78.0,60.5,30.16,WSW,250,0.0,9.0,55,0.00,,---,0.00,VWS V14.01,2013-08-18 16:54:00,
2013-08-18 11:59:00,78.9,61.9,30.16,WNW,302,1.0,2.0,56,0.00,,---,0.00,VWS V14.01,2013-08-18 16:59:00,
2013-08-18 12:00:00,78.9,61.9,30.16,ENE,77,1.0,9.0,56,0.00,,---,0.00,VWS V14.01,2013-08-18 17:00:00,
2013-08-18 12:04:00,78.3,60.8,30.16,SE,135,1.0,7.0,55,0.00,,---,0.00,VWS V14.01,2013-08-18 17:04:00,
2013-08-18 12:09:00,78.3,61.3,30.16,WSW,250,3.0,7.0,56,0.00,,---,0.00,VWS V14.01,2013-08-18 17:09:00,
2013-08-18 12:14:00,78.8,60.8,30.16,SE,125,4.0,7.0,54,0.00,,---,0.00,VWS V14.01,2013-08-18 17:14:00,
2013-08-18 12:19:00,78.8,60.2,30.16,ENE,77,3.0,7.0,53,0.00,,---,0.00,VWS V14.01,2013-08-18 17:19:00,
2013-08-18 12:24:00,78.3,60.3,30.15,SSE,165,2.0,7.0,54,0.00,,---,0.00,VWS V14.01,2013-08-18 17:24:00,
2013-08-18 12:29:00,78.2,60.2,30.15,WSW,238,1.0,1.0,54,0.00,,---,0.00,VWS V14.01,2013-08-18 17:29:00,
2013-08-18 12:30:00,78.3,60.3,30.15,SSE,160,0.0,7.0,54,0.00,,---,0.00,VWS V14.01,2013-08-18 17:30:00,
2013-08-18 12:34:00,78.3,60.3,30.15,SSW,194,3.0,4.0,54,0.00,,---,0.00,VWS V14.01,2013-08-18 17:34:00,
2013-08-18 12:39:00,78.8,60.8,30.15,WSW,245,4.0,5.0,54,0.00,,---,0.00,VWS V14.01,2013-08-18 17:39:00,
2013-08-18 12:44:00,78.9,59.8,30.15,SE,145,0.0,7.0,52,0.00,,---,0.00,VWS V14.01,2013-08-18 17:44:00,
2013-08-18 12:50:00,79.0,59.9,30.14,SE,143,2.0,7.0,52,0.00,,---,0.00,VWS V14.01,2013-08-18 17:50:00,
2013-08-18 12:55:00,79.8,60.6,30.15,SSW,207,3.0,7.0,52,0.00,,---,0.00,VWS V14.01,2013-08-18 17:55:00,
2013-08-18 13:00:00,79.7,59.4,30.14,West,276,3.0,9.0,50,0.00,,---,0.00,VWS V14.01,2013-08-18 18:00:00,
2013-08-18 13:05:00,79.6,59.9,30.15,SSE,160,2.0,9.0,51,0.00,,---,0.00,VWS V14.01,2013-08-18 18:05:00,
2013-08-18 13:10:00,79.8,60.6,30.15,SE,141,3.0,9.0,52,0.00,,---,0.00,VWS V14.01,2013-08-18 18:10:00,
2013-08-18 13:15:00,80.2,60.5,30.14,ENE,65,0.0,9.0,51,0.00,,---,0.00,VWS V14.01,2013-08-18 18:15:00,
2013-08-18 13:20:00,80.1,60.4,30.14,SSE,165,1.0,9.0,51,0.00,,---,0.00,VWS V14.01,2013-08-18 18:20:00,
2013-08-18 13:25:00,80.5,60.7,30.14,WSW,245,5.0,9.0,51,0.00,,---,0.00,VWS V14.01,2013-08-18 18:25:00,
2013-08-18 13:30:00,80.5,60.7,30.14,East,101,8.0,9.0,51,0.00,,---,0.00,VWS V14.01,2013-08-18 18:30:00,
2013-08-18 13:35:00,80.4,58.9,30.14,South,173,4.0,10.0,48,0.00,,---,0.00,VWS V14.01,2013-08-18 18:35:00,
2013-08-18 13:41:00,80.8,59.9,30.13,SSW,202,4.0,11.0,49,0.00,,---,0.00,VWS V14.01,2013-08-18 18:41:00,
2013-08-18 13:46:00,80.6,59.1,30.13,West,259,2.0,11.0,48,0.00,,---,0.00,VWS V14.01,2013-08-18 18:46:00,
2013-08-18 13:51:00,80.3,59.4,30.13,WNW,284,1.0,11.0,49,0.00,,---,0.00,VWS V14.01,2013-08-18 18:51:00,
2013-08-18 13:56:00,80.6,60.3,30.12,SE,138,1.0,11.0,50,0.00,,---,0.00,VWS V14.01,2013-08-18 18:56:00,
2013-08-18 14:00:00,81.1,61.3,30.12,SE,136,5.0,11.0,51,0.00,,---,0.00,VWS V14.01,2013-08-18 19:00:00,
2013-08-18 14:01:00,80.9,59.4,30.12,SE,135,2.0,9.0,48,0.00,,---,0.00,VWS V14.01,2013-08-18 19:01:00,
2013-08-18 14:06:00,80.7,59.2,30.12,WNW,290,1.0,9.0,48,0.00,,---,0.00,VWS V14.01,2013-08-18 19:06:00,
2013-08-18 14:11:00,80.5,59.6,30.12,South,185,4.0,9.0,49,0.00,,---,0.00,VWS V14.01,2013-08-18 19:11:00,
2013-08-18 14:16:00,81.6,60.0,30.12,South,170,1.0,9.0,48,0.00,,---,0.00,VWS V14.01,2013-08-18 19:16:00,
2013-08-18 14:21:00,81.6,59.4,30.11,SE,126,4.0,13.0,47,0.00,,---,0.00,VWS V14.01,2013-08-18 19:21:00,
2013-08-18 14:26:00,81.5,59.9,30.11,SSE,160,2.0,13.0,48,0.00,,---,0.00,VWS V14.01,2013-08-18 19:26:00,
2013-08-18 14:30:00,81.8,59.6,30.11,East,89,4.0,13.0,47,0.00,,---,0.00,VWS V14.01,2013-08-18 19:30:00,
2013-08-18 14:31:00,81.9,60.3,30.11,East,91,4.0,5.0,48,0.00,,---,0.00,VWS V14.01,2013-08-18 19:31:00,
2013-08-18 14:36:00,82.1,59.3,30.11,SSE,161,5.0,7.0,46,0.00,,---,0.00,VWS V14.01,2013-08-18 19:36:00,
2013-08-18 14:42:00,82.4,60.2,30.11,SE,141,3.0,8.0,47,0.00,,---,0.00,VWS V14.01,2013-08-18 19:42:00,
2013-08-18 14:47:00,82.2,59.4,30.11,WSW,248,0.0,10.0,46,0.00,,---,0.00,VWS V14.01,2013-08-18 19:47:00,
2013-08-18 14:52:00,82.4,59.6,30.11,SE,130,1.0,12.0,46,0.00,,---,0.00,VWS V14.01,2013-08-18 19:52:00,
2013-08-18 14:57:00,82.2,59.4,30.11,ESE,111,0.0,12.0,46,0.00,,---,0.00,VWS V14.01,2013-08-18 19:57:00,
2013-08-18 15:00:00,82.2,60.0,30.10,SW,222,3.0,12.0,47,0.00,,---,0.00,VWS V14.01,2013-08-18 20:00:00,
2013-08-18 15:02:00,82.5,60.3,30.10,SE,133,5.0,5.0,47,0.00,,---,0.00,VWS V14.01,2013-08-18 20:02:00,
2013-08-18 15:07:00,82.9,60.0,30.10,SW,224,4.0,8.0,46,0.00,,---,0.00,VWS V14.01,2013-08-18 20:07:00,
2013-08-18 15:12:00,82.5,59.7,30.10,ESE,105,2.0,8.0,46,0.00,,---,0.00,VWS V14.01,2013-08-18 20:12:00,
2013-08-18 15:17:00,81.5,59.3,30.10,SE,124,2.0,8.0,47,0.00,,---,0.00,VWS V14.01,2013-08-18 20:17:00,
2013-08-18 15:23:00,81.5,59.3,30.10,East,81,3.0,9.0,47,0.00,,---,0.00,VWS V14.01,2013-08-18 20:23:00,
2013-08-18 15:28:00,81.2,59.1,30.10,SE,145,2.0,9.0,47,0.00,,---,0.00,VWS V14.01,2013-08-18 20:28:00,
2013-08-18 15:30:00,81.2,59.7,30.10,WNW,293,0.0,9.0,48,0.00,,---,0.00,VWS V14.01,2013-08-18 20:30:00,
2013-08-18 15:33:00,81.5,59.9,30.10,SE,136,2.0,11.0,48,0.00,,---,0.00,VWS V14.01,2013-08-18 20:33:00,
2013-08-18 15:38:00,82.1,59.3,30.09,WSW,252,2.0,11.0,46,0.00,,---,0.00,VWS V14.01,2013-08-18 20:38:00,
2013-08-18 15:43:00,81.7,58.9,30.09,East,91,3.0,11.0,46,0.00,,---,0.00,VWS V14.01,2013-08-18 20:43:00,
2013-08-18 15:48:00,81.6,59.4,30.09,SW,222,2.0,11.0,47,0.00,,---,0.00,VWS V14.01,2013-08-18 20:48:00,
2013-08-18 15:53:00,82.1,59.3,30.09,SW,221,3.0,11.0,46,0.00,,---,0.00,VWS V14.01,2013-08-18 20:53:00,
2013-08-18 15:58:00,81.9,60.3,30.09,SW,225,0.0,11.0,48,0.00,,---,0.00,VWS V14.01,2013-08-18 20:58:00,
2013-08-18 16:00:00,81.9,59.7,30.09,WSW,255,1.0,11.0,47,0.00,,---,0.00,VWS V14.01,2013-08-18 21:00:00,
2013-08-18 16:04:00,81.6,59.4,30.09,ESE,110,1.0,7.0,47,0.00,,---,0.00,VWS V14.01,2013-08-18 21:04:00,
2013-08-18 16:09:00,81.7,59.5,30.09,SE,130,6.0,8.0,47,0.00,,---,0.00,VWS V14.01,2013-08-18 21:09:00,
2013-08-18 16:14:00,82.0,59.8,30.09,SSW,195,0.0,8.0,47,0.00,,---,0.00,VWS V14.01,2013-08-18 21:14:00,
2013-08-18 16:19:00,82.4,59.6,30.09,SW,219,6.0,8.0,46,0.00,,---,0.00,VWS V14.01,2013-08-18 21:19:00,
2013-08-18 16:24:00,81.4,58.7,30.09,WSW,248,3.0,8.0,46,0.00,,---,0.00,VWS V14.01,2013-08-18 21:24:00,
2013-08-18 16:29:00,81.0,59.5,30.09,WSW,255,2.0,3.0,48,0.00,,---,0.00,VWS V14.01,2013-08-18 21:29:00,
2013-08-18 16:30:00,81.0,59.5,30.09,SW,229,3.0,8.0,48,0.00,,---,0.00,VWS V14.01,2013-08-18 21:30:00,
2013-08-18 16:34:00,81.6,59.4,30.09,ESE,120,2.0,8.0,47,0.00,,---,0.00,VWS V14.01,2013-08-18 21:34:00,
2013-08-18 16:39:00,81.5,59.3,30.09,SE,130,4.0,8.0,47,0.00,,---,0.00,VWS V14.01,2013-08-18 21:39:00,
2013-08-18 16:44:00,81.0,59.5,30.09,ESE,111,5.0,8.0,48,0.00,,---,0.00,VWS V14.01,2013-08-18 21:44:00,
2013-08-18 16:50:00,80.3,58.8,30.09,SSE,158,1.0,8.0,48,0.00,,---,0.00,VWS V14.01,2013-08-18 21:50:00,
2013-08-18 16:55:00,79.9,59.6,30.09,South,170,1.0,8.0,50,0.00,,---,0.00,VWS V14.01,2013-08-18 21:55:00,
2013-08-18 17:00:00,80.3,60.0,30.09,SSE,161,0.0,2.0,50,0.00,,---,0.00,VWS V14.01,2013-08-18 22:00:00,
2013-08-18 17:05:00,80.2,59.3,30.10,WSW,240,2.0,7.0,49,0.00,,---,0.00,VWS V14.01,2013-08-18 22:05:00,
2013-08-18 17:10:00,80.6,60.3,30.10,SW,218,1.0,7.0,50,0.00,,---,0.00,VWS V14.01,2013-08-18 22:10:00,
2013-08-18 17:15:00,80.8,59.3,30.10,ESE,117,4.0,7.0,48,0.00,,---,0.00,VWS V14.01,2013-08-18 22:15:00,
2013-08-18 17:20:00,80.1,59.2,30.10,SSE,151,0.0,7.0,49,0.00,,---,0.00,VWS V14.01,2013-08-18 22:20:00,
2013-08-18 17:25:00,79.8,59.5,30.10,SSW,212,1.0,7.0,50,0.00,,---,0.00,VWS V14.01,2013-08-18 22:25:00,
2013-08-18 17:30:00,80.0,59.7,30.09,ESE,104,2.0,7.0,50,0.00,,---,0.00,VWS V14.01,2013-08-18 22:30:00,
2013-08-18 17:31:00,80.2,59.9,30.10,East,91,2.0,4.0,50,0.00,,---,0.00,VWS V14.01,2013-08-18 22:31:00,
2013-08-18 17:36:00,80.5,59.6,30.10,East,101,3.0,6.0,49,0.00,,---,0.00,VWS V14.01,2013-08-18 22:36:00,
2013-08-18 17:41:00,80.5,59.6,30.10,North,4,1.0,6.0,49,0.00,,---,0.00,VWS V14.01,2013-08-18 22:41:00,
2013-08-18 17:46:00,80.8,59.9,30.09,SE,129,4.0,6.0,49,0.00,,---,0.00,VWS V14.01,2013-08-18 22:46:00,
2013-08-18 17:51:00,80.9,59.4,30.09,SSE,167,3.0,6.0,48,0.00,,---,0.00,VWS V14.01,2013-08-18 22:51:00,
2013-08-18 17:56:00,80.9,59.4,30.09,SSE,159,2.0,6.0,48,0.00,,---,0.00,VWS V14.01,2013-08-18 22:56:00,
2013-08-18 18:00:00,80.9,60.0,30.09,SW,232,1.0,6.0,49,0.00,,---,0.00,VWS V14.01,2013-08-18 23:00:00,
2013-08-18 18:01:00,80.8,60.4,30.09,SSE,163,0.0,2.0,50,0.00,,---,0.00,VWS V14.01,2013-08-18 23:01:00,
2013-08-18 18:06:00,80.6,59.7,30.09,ESE,108,0.0,3.0,49,0.00,,---,0.00,VWS V14.01,2013-08-18 23:06:00,
2013-08-18 18:11:00,80.1,59.8,30.09,WSW,240,3.0,3.0,50,0.00,,---,0.00,VWS V14.01,2013-08-18 23:11:00,
2013-08-18 18:16:00,79.9,59.0,30.09,SE,136,1.0,4.0,49,0.00,,---,0.00,VWS V14.01,2013-08-18 23:16:00,
2013-08-18 18:21:00,80.2,59.3,30.09,SSW,205,1.0,4.0,49,0.00,,---,0.00,VWS V14.01,2013-08-18 23:21:00,
2013-08-18 18:26:00,80.4,59.5,30.09,ESE,123,1.0,4.0,49,0.00,,---,0.00,VWS V14.01,2013-08-18 23:26:00,
2013-08-18 18:30:00,80.3,59.4,30.08,East,79,4.0,4.0,49,0.00,,---,0.00,VWS V14.01,2013-08-18 23:30:00,
2013-08-18 18:31:00,80.3,59.4,30.08,SE,134,2.0,4.0,49,0.00,,---,0.00,VWS V14.01,2013-08-18 23:31:00,
2013-08-18 18:36:00,80.1,59.2,30.08,SE,141,1.0,4.0,49,0.00,,---,0.00,VWS V14.01,2013-08-18 23:36:00,
2013-08-18 18:42:00,80.1,59.8,30.08,South,176,1.0,4.0,50,0.00,,---,0.00,VWS V14.01,2013-08-18 23:42:00,
2013-08-18 18:47:00,79.9,59.6,30.08,ESE,116,1.0,4.0,50,0.00,,---,0.00,VWS V14.01,2013-08-18 23:47:00,
2013-08-18 18:52:00,79.8,60.1,30.08,SE,134,0.0,4.0,51,0.00,,---,0.00,VWS V14.01,2013-08-18 23:52:00,
2013-08-18 18:57:00,79.8,60.1,30.08,SE,145,0.0,4.0,51,0.00,,---,0.00,VWS V14.01,2013-08-18 23:57:00,
2013-08-18 19:00:00,79.8,60.1,30.07,ESE,106,1.0,4.0,51,0.00,,---,0.00,VWS V14.01,2013-08-19 00:00:00,
2013-08-18 19:02:00,79.8,60.1,30.07,SSE,158,0.0,3.0,51,0.00,,---,0.00,VWS V14.01,2013-08-19 00:02:00,
2013-08-18 19:07:00,79.5,60.3,30.07,SE,132,0.0,3.0,52,0.00,,---,0.00,VWS V14.01,2013-08-19 00:07:00,
2013-08-18 19:12:00,79.3,59.6,30.07,SSE,158,0.0,3.0,51,0.00,,---,0.00,VWS V14.01,2013-08-19 00:12:00,
2013-08-18 19:17:00,79.0,59.9,30.07,SSE,151,1.0,3.0,52,0.00,,---,0.00,VWS V14.01,2013-08-19 00:17:00,
2013-08-18 19:22:00,78.3,60.3,30.07,SSE,158,0.0,3.0,54,0.00,,---,0.00,VWS V14.01,2013-08-19 00:22:00,
2013-08-18 19:27:00,77.8,60.4,30.07,SSE,153,0.0,3.0,55,0.00,,---,0.00,VWS V14.01,2013-08-19 00:27:00,
2013-08-18 19:30:00,77.7,60.3,30.07,SE,134,0.0,3.0,55,0.00,,---,0.00,VWS V14.01,2013-08-19 00:30:00,
2013-08-18 19:32:00,77.2,60.3,30.07,SE,130,0.0,1.0,56,0.00,,---,0.00,VWS V14.01,2013-08-19 00:32:00,
2013-08-18 19:37:00,76.7,60.3,30.07,SE,136,0.0,1.0,57,0.00,,---,0.00,VWS V14.01,2013-08-19 00:37:00,
2013-08-18 19:43:00,76.2,60.4,30.07,SE,136,0.0,1.0,58,0.00,,---,0.00,VWS V14.01,2013-08-19 00:43:00,
2013-08-18 19:48:00,75.8,60.5,30.07,ESE,123,0.0,1.0,59,0.00,,---,0.00,VWS V14.01,2013-08-19 00:48:00,
2013-08-18 19:53:00,75.4,60.6,30.07,SE,145,0.0,1.0,60,0.00,,---,0.00,VWS V14.01,2013-08-19 00:53:00,
2013-08-18 19:58:00,75.0,60.7,30.07,SE,124,0.0,1.0,61,0.00,,---,0.00,VWS V14.01,2013-08-19 00:58:00,
2013-08-18 20:00:00,75.0,60.7,30.07,SE,124,0.0,1.0,61,0.00,,---,0.00,VWS V14.01,2013-08-19 01:00:00,
2013-08-18 20:03:00,74.6,60.3,30.07,SE,124,0.0,0.0,61,0.00,,---,0.00,VWS V14.01,2013-08-19 01:03:00,
2013-08-18 20:08:00,74.3,60.5,30.07,SE,124,0.0,1.0,62,0.00,,---,0.00,VWS V14.01,2013-08-19 01:08:00,
2013-08-18 20:13:00,73.9,60.5,30.07,SE,124,0.0,1.0,63,0.00,,---,0.00,VWS V14.01,2013-08-19 01:13:00,
2013-08-18 20:18:00,73.5,60.6,30.07,ESE,123,0.0,1.0,64,0.00,,---,0.00,VWS V14.01,2013-08-19 01:18:00,
2013-08-18 20:23:00,73.3,60.4,30.07,SE,134,0.0,1.0,64,0.00,,---,0.00,VWS V14.01,2013-08-19 01:23:00,
2013-08-18 20:28:00,73.0,60.1,30.07,SE,134,0.0,1.0,64,0.00,,---,0.00,VWS V14.01,2013-08-19 01:28:00,
2013-08-18 20:30:00,73.0,60.5,30.07,SE,134,0.0,1.0,65,0.00,,---,0.00,VWS V14.01,2013-08-19 01:30:00,
2013-08-18 20:33:00,72.7,60.3,30.07,SE,134,0.0,1.0,65,0.00,,---,0.00,VWS V14.01,2013-08-19 01:33:00,
2013-08-18 20:38:00,72.5,60.1,30.07,SE,134,0.0,1.0,65,0.00,,---,0.00,VWS V14.01,2013-08-19 01:38:00,
2013-08-18 20:43:00,72.1,60.1,30.07,SE,134,0.0,1.0,66,0.00,,---,0.00,VWS V14.01,2013-08-19 01:43:00,
2013-08-18 20:49:00,71.8,59.8,30.07,SE,134,0.0,1.0,66,0.00,,---,0.00,VWS V14.01,2013-08-19 01:49:00,
2013-08-18 20:54:00,71.6,60.1,30.07,SE,134,0.0,1.0,67,0.00,,---,0.00,VWS V14.01,2013-08-19 01:54:00,
2013-08-18 20:59:00,71.5,60.0,30.07,SE,134,0.0,0.0,67,0.00,,---,0.00,VWS V14.01,2013-08-19 01:59:00,
2013-08-18 21:00:00,71.5,60.0,30.07,SE,134,0.0,1.0,67,0.00,,---,0.00,VWS V14.01,2013-08-19 02:00:00,
2013-08-18 21:04:00,71.4,59.9,30.08,SE,134,0.0,0.0,67,0.00,,---,0.00,VWS V14.01,2013-08-19 02:04:00,
2013-08-18 21:09:00,71.2,60.1,30.08,SE,134,0.0,1.0,68,0.00,,---,0.00,VWS V14.01,2013-08-19 02:09:00,
2013-08-18 21:14:00,70.8,59.7,30.08,SE,134,0.0,1.0,68,0.00,,---,0.00,VWS V14.01,2013-08-19 02:14:00,
2013-08-18 21:19:00,70.6,60.0,30.08,SE,134,0.0,1.0,69,0.00,,---,0.00,VWS V14.01,2013-08-19 02:19:00,
2013-08-18 21:24:00,70.7,60.0,30.08,SE,134,0.0,1.0,69,0.00,,---,0.00,VWS V14.01,2013-08-19 02:24:00,
2013-08-18 21:29:00,70.7,59.6,30.08,SE,134,0.0,0.0,68,0.00,,---,0.00,VWS V14.01,2013-08-19 02:29:00,
2013-08-18 21:30:00,70.7,59.6,30.08,SE,134,0.0,1.0,68,0.00,,---,0.00,VWS V14.01,2013-08-19 02:30:00,
2013-08-18 21:34:00,70.8,59.7,30.08,SE,134,0.0,1.0,68,0.00,,---,0.00,VWS V14.01,2013-08-19 02:34:00,
2013-08-18 21:39:00,70.7,59.6,30.08,SE,134,0.0,1.0,68,0.00,,---,0.00,VWS V14.01,2013-08-19 02:39:00,
2013-08-18 21:44:00,70.5,59.8,30.08,SE,134,0.0,1.0,69,0.00,,---,0.00,VWS V14.01,2013-08-19 02:44:00,
2013-08-18 21:49:00,70.3,60.1,30.08,SE,134,0.0,1.0,70,0.00,,---,0.00,VWS V14.01,2013-08-19 02:49:00,
2013-08-18 21:54:00,70.0,59.8,30.08,SE,134,0.0,1.0,70,0.00,,---,0.00,VWS V14.01,2013-08-19 02:54:00,
2013-08-18 22:00:00,69.5,59.7,30.08,SE,134,0.0,0.0,71,0.00,,---,0.00,VWS V14.01,2013-08-19 03:00:00,
2013-08-18 22:05:00,69.1,59.7,30.09,SE,134,0.0,0.0,72,0.00,,---,0.00,VWS V14.01,2013-08-19 03:05:00,
2013-08-18 22:10:00,69.1,59.7,30.09,SE,134,0.0,0.0,72,0.00,,---,0.00,VWS V14.01,2013-08-19 03:10:00,
2013-08-18 22:15:00,69.1,59.7,30.09,SE,134,0.0,0.0,72,0.00,,---,0.00,VWS V14.01,2013-08-19 03:15:00,
2013-08-18 22:20:00,69.0,60.0,30.09,SE,134,0.0,0.0,73,0.00,,---,0.00,VWS V14.01,2013-08-19 03:20:00,
2013-08-18 22:25:00,68.8,59.8,30.09,SE,134,0.0,0.0,73,0.00,,---,0.00,VWS V14.01,2013-08-19 03:25:00,
2013-08-18 22:30:00,68.7,59.7,30.09,SE,134,1.0,1.0,73,0.00,,---,0.00,VWS V14.01,2013-08-19 03:30:00,
2013-08-18 22:35:00,68.5,59.9,30.08,SE,134,0.0,1.0,74,0.00,,---,0.00,VWS V14.01,2013-08-19 03:35:00,
2013-08-18 22:40:00,68.2,60.0,30.08,SE,134,0.0,1.0,75,0.00,,---,0.00,VWS V14.01,2013-08-19 03:40:00,
2013-08-18 22:45:00,68.1,59.9,30.08,SE,134,0.0,1.0,75,0.00,,---,0.00,VWS V14.01,2013-08-19 03:45:00,
2013-08-18 22:50:00,68.0,60.2,30.08,SE,134,0.0,1.0,76,0.00,,---,0.00,VWS V14.01,2013-08-19 03:50:00,
2013-08-18 22:56:00,68.0,60.2,30.08,SE,134,0.0,1.0,76,0.00,,---,0.00,VWS V14.01,2013-08-19 03:56:00,
2013-08-18 23:00:00,67.9,60.1,30.08,SE,134,0.0,1.0,76,0.00,,---,0.00,VWS V14.01,2013-08-19 04:00:00,
2013-08-18 23:01:00,67.8,60.0,30.08,SE,134,0.0,0.0,76,0.00,,---,0.00,VWS V14.01,2013-08-19 04:01:00,
2013-08-18 23:03:00,67.7,59.9,30.08,SE,134,0.0,0.0,76,0.00,,---,0.00,VWS V14.01,2013-08-19 04:03:00,
2013-08-18 23:05:00,67.7,59.9,30.08,SE,133,0.0,0.0,76,0.00,,---,0.00,VWS V14.01,2013-08-19 04:05:00,
2013-08-18 23:10:00,67.6,60.1,30.09,SE,133,0.0,0.0,77,0.00,,---,0.00,VWS V14.01,2013-08-19 04:10:00,
2013-08-18 23:15:00,67.4,60.0,30.09,SE,132,0.0,0.0,77,0.00,,---,0.00,VWS V14.01,2013-08-19 04:15:00,
2013-08-18 23:20:00,67.1,59.7,30.09,SE,130,0.0,0.0,77,0.00,,---,0.00,VWS V14.01,2013-08-19 04:20:00,
2013-08-18 23:26:00,67.1,60.0,30.09,SE,133,0.0,0.0,78,0.00,,---,0.00,VWS V14.01,2013-08-19 04:26:00,
2013-08-18 23:30:00,67.2,60.1,30.09,East,98,0.0,0.0,78,0.00,,---,0.00,VWS V14.01,2013-08-19 04:30:00,
2013-08-18 23:31:00,67.1,60.0,30.09,SSE,157,0.0,0.0,78,0.00,,---,0.00,VWS V14.01,2013-08-19 04:31:00,
2013-08-18 23:36:00,67.0,59.9,30.09,South,177,0.0,0.0,78,0.00,,---,0.00,VWS V14.01,2013-08-19 04:36:00,
2013-08-18 23:41:00,66.8,60.1,30.09,SE,142,0.0,0.0,79,0.00,,---,0.00,VWS V14.01,2013-08-19 04:41:00,
2013-08-18 23:46:00,66.6,60.2,30.09,South,190,0.0,0.0,80,0.00,,---,0.00,VWS V14.01,2013-08-19 04:46:00,
2013-08-18 23:51:00,66.4,60.0,30.09,SW,224,0.0,0.0,80,0.00,,---,0.00,VWS V14.01,2013-08-19 04:51:00,
2013-08-18 23:56:00,66.4,60.0,30.09,SW,224,0.0,0.0,80,0.00,,---,0.00,VWS V14.01,2013-08-19 04:56:00,